Location: Newark
(37.7892°N, 97.1083°W)
Time: 01:42:18
(UTC+00:00)

ISS - Pass Details

Date: 24 December 2019
Orbit: 415 x 421 km, 51.6° (Epoch: 19 January)

Event Time Altitude Azimuth Distance (km) Brightness Sun altitude
Exits shadow 12:13:01 44° 262° (W) 579 -3.5 -16.9°
Maximum altitude 12:13:50 63° 322° (NW) 464 -3.8 -16.7°
Drops below altitude 10° 12:17:09 10° 45° (NE) 1,488 -0.6 -16.1°
Sets 12:19:15 0° 48° (NE) 2,354 0.5 -15.7°
